Showing default

OPS 5712 (P/L 152), 2873

Orbit data source: Space-Track

OPS 5712 (P/L 152), 2873 is an American payload satellite in LEO that was launched on Wed, 31 May 1967 UTC via a THOR SLV-2 AGENA D launch vehicle from the Air Force Western Test Range (AFWTR). Payload-class satellites include a variety of spacecraft equipped with specific instruments for various scientific and technological missions. These include communications satellites like Starlink; space stations such as the ISS; scientific satellites like the Hubble; Earth observation satellites from companies like Planet Labs, Umbra, and HawkEye 360; GPS; miniature CubeSats for education and research; and military/defense satellites.

Loading next visibility...
Identifier
2873, 1967-053G
Orbit
LEO
Country
Flag of USUS
Related business
Manufacturer
NRL
Mission
Defense Sigint
Bus & Motor
NRL 24", Unknown motor
Mass
52 kg wet, 52 kg dry
Launch date (UTC)
1967-05-31 (58 years ago)
Launch vehicle
THOR SLV-2 AGENA D
Launch site
Air Force Western Test Range (AFWTR)
Object type
Payload
Rocket body
Debris
Shape & HBR
Ell + 1 Ant, 9.0 m
Radar Cross Section
1.267 m², Medium (>0.1 m² and < 1m²)

Expand to show TLE details & history
Last TLE update: 17 hours ago

TLE from 17 hours ago
0 OPS 5712 (P/L 152)
1 02873U 67053G   25260.51815113  .00000062  00000-0  80898-4 0  9996
2 02873  69.9723 276.0903 0006522 171.4668 265.5540 13.98438466970390
Epoch: 2025-09-17T12:26Z
TLE epoch observation values (Epoch: 2025-09-17T12:26:08.257Z)
Latitude
66.34356°
Longitude
148.73155°
Altitude
910.436 km
Speed
7.403 km/s
True Right ascension
22h 07m 50s
True Declination
66° 13' 10"
Sunlit
Object was in daylight at epoch
Visualization orbit readout
Latitude
Unknown
Longitude
Unknown
Altitude
Unknown
Speed
Unknown
Apparent Right ascension
Unknown
Apparent Declination
Unknown
Sunlit
N/A
Visualization observer readout
Local Sidereal Time
22:00:23
Azimuth
Unknown
Elevation
Unknown
Doppler factor
Unknown
Orbital elements
Apogee altitude
901.996 km
Perigee altitude
892.506 km
Semi-major axis
7,275.388 km
Eccentricity
0.00065
Inclination
69.9723°
RAAN
276.0903°
Arg. of periapsis
171.4668°
True anomaly
265.47949°
Mean anomaly
265.554°
Eccentric anomaly
265.51675°
Mean motion
3.49751 °/min
Orbital period
102.93 mins
BSTAR
0.000080898
Loading maneuver chart data...
Computing Atmospheric mass density...
Loading historical data...
Loading historical data...
Loading historical data...
Loading historical data...
Loading historical data...
Loading historical data...
Loading historical data...

Documentation

Showing up to 5 results
|